Theta_e
321 321 321 320 319 319 320 320 319 317 317 317 316 316 315 315 315 314 315 314 313 313 314 312 309 308 308 307 307 307 308 308 307 307 306 306 306 305 305 305 305 304 305 305 304 304 304 304 304 304 304 304 304 304 304 305 305 305 305 306 307 309 312 314 316 317 317 319 321 322 322 324 324 324 325 325 324 325 326 326 326 326 325 325 325
321 321 320 320 319 320 321 321 319 318 317 317 317 316 316 315 314 315 315 314 314 314 313 310 309 308 308 307 307 308 308 308 307 306 306 305 305 305 305 305 305 305 304 305 305 304 304 303 303 303 304 304 304 304 304 304 304 304 304 304 305 307 309 312 314 315 316 316 317 319 319 321 323 325 324 324 323 323 324 325 326 326 326 326 325
321 321 320 320 320 320 320 321 320 318 317 317 316 315 315 315 315 315 315 314 314 313 311 309 309 309 308 308 308 308 308 307 307 306 305 305 305 304 304 304 304 304 304 304 304 304 304 303 303 303 303 304 304 304 304 304 303 303 304 304 305 306 307 309 312 314 314 315 315 316 318 319 321 322 323 324 324 323 324 324 325 326 326 326 326
321 321 320 320 320 319 319 320 319 318 317 317 316 316 316 316 315 315 314 314 313 311 309 309 309 309 308 308 308 308 307 306 306 305 305 304 304 304 304 304 304 303 304 304 304 304 304 304 303 303 303 303 303 303 303 303 303 303 303 304 305 305 305 307 309 309 309 310 311 312 314 315 316 318 320 323 324 325 324 325 325 326 326 326 326
321 321 320 320 319 319 319 319 318 318 317 317 316 316 316 316 315 314 314 314 312 310 309 310 309 309 309 309 308 307 306 305 305 304 304 303 304 303 303 303 303 303 303 303 303 303 304 303 303 303 303 302 303 303 303 303 303 303 303 303 303 303 304 304 305 305 305 307 308 308 310 311 313 315 318 320 323 324 325 325 325 325 326 326 326
322 321 320 320 319 319 319 318 318 318 317 317 316 316 316 315 314 314 314 313 311 310 310 310 309 309 309 308 307 306 305 304 304 303 303 303 303 302 302 302 301 301 301 301 301 302 302 303 302 302 303 303 303 303 303 303 303 303 303 303 303 303 303 304 303 303 304 305 305 306 307 308 310 313 315 317 319 322 324 325 325 325 325 325 325
322 321 321 320 319 320 320 319 319 318 318 317 317 316 316 315 314 313 313 312 310 310 310 310 310 309 308 307 306 305 304 304 303 303 302 302 302 301 301 300 300 300 299 299 299 299 300 300 301 301 302 302 302 302 302 303 303 303 303 303 303 303 303 303 303 303 303 303 304 305 305 306 308 310 312 314 316 320 323 323 324 324 324 324 324
324 322 321 320 319 319 319 319 319 318 317 317 316 316 315 314 313 313 312 310 310 310 310 310 309 308 307 306 305 304 303 303 302 302 301 300 300 300 299 299 299 299 299 299 298 299 299 299 299 299 299 300 301 301 302 302 302 303 303 303 302 302 302 302 302 302 302 303 303 303 304 305 306 308 310 312 314 318 320 321 322 322 322 323 322
324 323 322 320 319 319 318 318 317 317 316 316 316 315 314 314 313 312 311 310 310 310 310 309 308 307 306 304 304 303 302 302 301 300 300 299 299 299 298 298 299 299 299 299 299 298 298 298 298 298 298 298 299 299 300 300 301 301 301 301 301 301 301 301 301 302 302 302 302 303 303 304 305 307 308 310 312 315 317 318 319 321 321 321 320
322 323 323 321 320 320 319 317 316 315 314 314 314 314 314 313 312 311 311 310 310 310 309 308 307 306 305 303 303 302 302 301 300 299 299 298 298 298 298 298 298 298 298 298 298 298 298 298 298 298 298 298 298 298 298 298 298 299 299 300 300 300 300 300 300 300 301 301 301 302 302 303 304 305 306 308 309 311 313 315 317 318 318 317 317
321 321 322 322 321 321 320 318 315 314 312 312 313 313 313 313 312 311 311 310 310 310 309 307 306 305 304 303 302 302 301 300 299 298 297 296 295 295 296 297 297 297 298 297 297 297 297 297 297 297 297 298 298 298 297 297 297 297 297 298 298 299 299 299 300 300 300 300 300 300 301 302 302 303 305 306 307 309 311 313 315 316 315 314 315
317 320 320 321 321 321 320 317 315 313 313 314 314 314 313 313 312 311 311 311 310 309 308 306 305 304 303 302 302 301 300 299 298 296 295 294 293 293 294 295 295 296 296 296 296 296 296 296 296 296 296 296 297 297 297 297 297 297 297 297 297 297 298 298 299 299 299 300 300 300 300 300 301 302 303 305 306 307 309 311 313 315 315 313 314
314 317 318 319 320 320 318 316 315 314 315 315 315 315 313 312 312 311 311 310 309 308 306 305 304 303 302 301 301 300 298 297 296 294 293 293 293 293 293 293 294 294 295 295 295 295 295 295 295 295 295 296 296 296 296 296 296 296 296 296 296 296 297 297 297 298 299 299 299 299 299 299 300 300 301 303 305 307 308 310 312 314 314 313 314
312 314 316 317 318 318 317 316 315 314 315 314 313 313 312 312 311 311 310 309 308 306 305 304 303 302 301 300 299 298 296 295 294 293 294 294 293 292 293 293 293 294 294 294 294 294 294 294 294 294 295 295 295 295 295 295 295 295 295 295 295 296 296 296 296 297 298 298 299 299 299 299 299 299 300 303 305 306 307 309 310 311 313 313 313
310 312 314 316 316 316 315 315 314 313 313 313 313 312 312 312 311 310 309 308 307 305 304 303 302 301 300 299 297 296 295 294 294 294 294 293 292 292 292 293 293 293 294 294 294 294 294 294 294 294 294 294 294 294 294 294 294 295 294 295 295 295 295 295 296 296 297 298 298 299 299 299 299 299 300 302 303 305 306 307 307 307 309 311 312
311 311 313 314 315 316 315 313 312 312 312 313 313 312 312 311 310 309 308 306 305 304 303 302 301 300 299 297 296 295 295 295 295 294 293 292 291 291 292 292 293 293 293 293 293 293 293 293 293 293 293 293 293 293 293 293 294 294 294 294 294 294 294 294 295 295 296 296 297 298 298 298 299 299 299 300 302 304 304 304 303 303 305 309 310
311 311 312 313 314 315 314 312 311 311 312 312 311 311 311 310 309 308 306 304 303 302 302 301 299 298 298 297 296 295 295 295 294 292 291 291 291 291 291 292 292 293 293 293 293 293 293 293 293 293 293 293 293 293 293 293 293 293 293 293 293 293 293 294 294 294 295 295 296 296 297 297 298 298 298 299 300 300 300 300 300 301 304 308 309
310 311 312 313 313 314 312 310 310 311 312 311 311 310 310 308 307 306 305 303 302 301 300 299 298 298 297 297 296 295 295 294 292 291 291 291 291 291 291 291 292 292 292 292 292 292 292 292 292 292 292 292 293 292 292 292 293 293 293 292 292 293 293 293 294 294 295 295 295 296 296 296 297 297 297 298 298 298 298 298 299 301 305 307 308
310 311 312 312 313 313 311 310 310 310 310 310 309 308 307 306 305 304 303 302 300 299 298 298 298 298 297 296 296 296 294 293 291 291 291 291 291 291 291 291 291 291 291 291 291 291 291 291 291 291 292 292 292 292 292 292 292 292 292 292 292 292 292 292 293 293 294 294 295 295 295 296 297 297 297 297 298 298 298 298 299 302 305 307 308
310 310 311 312 311 311 309 308 308 308 307 307 306 306 305 304 303 301 300 299 298 298 298 298 298 298 297 296 296 295 293 292 291 291 290 291 291 291 291 290 291 291 291 291 291 290 290 290 290 290 290 290 290 291 291 291 291 291 291 291 291 291 292 292 292 293 293 294 294 295 295 295 296 297 298 298 298 298 299 300 301 303 306 307 308
310 310 311 310 309 308 307 306 305 305 305 305 304 303 302 301 300 299 298 298 298 298 298 298 298 298 297 296 296 294 293 292 291 290 290 291 291 291 291 290 290 290 290 290 290 290 290 289 289 289 289 289 289 290 290 290 290 290 290 290 290 291 291 291 292 292 292 293 294 295 295 295 296 297 297 298 298 298 299 301 302 303 304 306 308
310 310 309 308 307 307 306 305 304 303 303 302 301 299 299 298 298 298 298 298 298 299 299 298 298 297 296 296 295 294 293 292 290 290 291 291 291 291 290 290 290 290 290 290 289 289 289 289 289 289 289 289 289 289 289 289 289 289 289 290 290 290 290 291 291 292 292 293 293 294 295 295 296 297 297 298 298 298 298 299 300 301 302 304 306
309 308 306 305 305 304 304 304 303 301 299 298 297 298 298 298 298 298 299 298 298 298 298 298 297 296 296 295 295 294 293 292 290 290 290 291 291 291 290 290 290 289 289 289 289 289 289 289 289 289 289 289 289 289 289 289 289 289 289 289 289 289 290 290 290 291 292 292 293 293 294 295 296 296 297 297 298 298 298 298 298 299 301 303 304
307 306 304 304 304 304 304 302 300 298 297 297 297 297 298 298 298 298 298 298 298 298 298 297 296 296 296 295 294 293 293 292 290 290 290 290 290 290 290 290 289 289 289 289 289 289 289 289 289 289 289 289 289 289 289 289 289 289 289 289 289 289 289 289 290 290 291 291 292 292 293 294 295 296 296 297 297 297 297 297 297 298 300 302 303
305 303 303 303 303 302 301 299 297 297 297 297 297 298 298 298 298 298 297 297 298 298 297 296 296 296 295 294 293 293 293 292 291 290 290 290 290 290 290 289 289 289 288 288 288 288 288 288 288 288 288 288 288 288 288 288 289 289 289 289 289 289 289 289 290 290 291 291 292 292 293 294 294 295 296 296 297 297 297 297 297 298 299 300 302
303 302 302 302 301 300 298 297 297 298 298 298 298 298 297 297 297 297 297 297 297 297 297 296 295 295 294 294 293 293 293 293 292 291 290 290 290 290 289 289 288 288 288 288 288 288 288 288 288 288 288 288 288 288 289 289 289 289 289 289 289 289 289 289 289 290 290 291 292 292 293 293 294 295 296 296 297 297 297 297 297 298 299 300 302
301 301 301 301 300 299 298 297 298 298 297 297 297 297 297 297 297 296 297 297 296 296 296 295 295 294 294 293 293 293 293 292 292 291 290 290 289 289 289 288 288 288 288 288 288 288 288 288 288 288 288 288 288 288 289 289 289 289 289 289 289 289 289 289 290 290 290 291 292 292 292 293 294 295 296 296 296 297 297 297 297 298 299 300 303
300 300 300 299 299 298 298 298 298 298 298 297 297 297 297 296 296 296 296 296 295 295 294 294 294 294 293 293 293 292 292 292 292 291 290 290 289 289 289 288 288 288 288 288 288 288 288 288 288 288 288 288 288 289 289 289 289 289 289 289 290 290 290 290 290 290 291 291 291 292 292 293 294 295 296 296 296 297 297 297 298 299 300 301 303
299 299 299 299 298 298 298 298 298 297 297 297 297 297 297 296 296 295 295 295 294 294 294 294 293 294 293 293 293 292 292 292 292 291 290 290 289 289 288 288 288 288 287 287 287 287 287 288 288 288 288 288 289 289 289 289 289 290 290 290 290 290 290 290 290 291 291 291 291 292 292 293 294 295 296 296 296 296 297 297 298 299 301 303 303
299 299 298 298 298 298 298 298 298 297 297 297 297 297 296 295 295 294 294 294 293 294 294 293 293 293 293 293 292 292 292 292 292 291 290 290 289 289 288 288 287 287 287 287 287 287 287 288 288 288 289 289 289 289 290 290 290 291 291 291 291 291 291 291 291 291 291 291 291 292 292 293 294 295 296 296 296 297 297 297 299 300 302 303 302
298 297 297 297 298 298 298 298 297 297 297 297 297 297 296 295 294 293 294 294 294 294 294 293 293 293 293 293 292 292 292 292 291 290 290 290 289 288 288 287 287 287 287 287 287 287 288 288 288 288 289 289 289 289 290 290 291 291 292 292 292 292 291 291 291 291 291 291 291 292 292 293 294 295 296 296 296 297 297 298 299 300 302 303 302
297 297 297 298 298 298 298 298 297 297 297 297 296 296 295 294 294 294 294 294 294 294 294 294 293 293 293 292 292 292 291 291 290 290 290 289 289 288 287 287 287 287 287 287 287 287 288 288 288 288 288 289 289 289 289 290 290 291 291 292 292 292 292 292 292 292 292 292 292 292 292 293 294 295 295 296 296 297 297 298 299 300 302 302 301
297 297 298 299 298 298 298 297 297 297 297 297 296 295 294 294 294 294 294 294 294 294 294 294 293 293 293 292 292 292 291 290 290 290 290 289 288 288 287 287 287 287 287 287 287 287 287 287 288 288 288 288 288 289 289 289 289 290 291 292 292 293 293 293 292 292 292 292 292 292 293 293 294 294 295 296 296 297 297 298 299 300 301 301 299
298 298 298 298 298 298 298 297 297 297 297 296 295 295 294 294 294 294 294 294 294 294 294 294 293 293 293 292 292 291 291 290 290 290 289 288 288 287 287 287 286 286 286 287 287 287 287 287 287 287 288 288 288 288 288 289 289 289 290 291 292 293 293 293 293 292 292 293 293 293 293 294 294 294 295 295 296 296 297 298 298 299 299 299 297
299 299 299 298 298 298 298 297 297 297 297 296 295 294 294 294 294 294 294 294 294 294 294 294 293 293 293 292 292 291 290 291 291 290 289 288 287 286 286 286 286 286 286 286 286 286 287 287 287 287 287 287 287 288 288 288 289 289 290 291 292 293 293 293 293 293 293 293 293 294 294 294 294 295 295 296 296 296 297 297 298 298 298 297 296
299 299 299 298 299 298 298 298 297 297 297 296 295 294 294 294 294 294 294 294 293 294 294 294 293 293 293 292 291 291 290 291 290 290 289 287 287 286 286 286 286 286 286 286 286 286 286 286 287 287 287 287 287 287 288 288 288 289 290 291 292 293 293 294 294 294 294 294 294 295 295 295 295 295 296 296 296 296 297 297 297 297 297 296 295
299 299 299 299 299 298 298 298 297 297 297 296 295 295 295 295 294 294 294 293 293 294 294 294 293 293 292 292 291 290 290 291 291 290 289 287 286 286 286 286 286 286 286 286 286 286 286 286 286 286 286 286 287 287 287 288 288 289 290 291 292 292 293 294 294 294 294 294 294 295 296 296 296 296 296 296 296 296 296 297 296 296 295 294 294
299 299 299 299 299 299 298 298 298 297 297 296 295 295 295 295 295 295 294 294 294 294 294 293 293 292 292 291 290 290 290 291 290 290 289 287 286 286 286 286 286 286 286 286 286 286 286 286 286 286 286 286 286 286 287 287 288 289 290 291 292 292 293 294 294 294 294 295 295 295 296 296 296 297 297 296 296 295 296 295 295 294 294 294 294
298 299 299 299 299 299 298 298 297 297 296 295 295 295 295 296 296 296 296 295 294 294 294 293 293 292 291 291 290 290 290 290 290 289 288 287 286 286 286 286 286 286 286 286 286 286 286 286 286 286 286 286 286 286 286 287 288 289 290 290 291 292 293 294 294 294 294 295 295 295 296 296 296 296 296 296 295 295 295 294 294 293 293 293 293
298 299 299 299 299 298 297 297 296 296 295 296 296 296 297 297 296 296 295 295 294 294 293 293 292 292 291 291 290 290 290 290 289 289 288 287 286 286 286 286 286 286 286 286 285 285 285 285 286 286 286 286 286 286 286 287 288 288 289 290 291 292 292 293 294 294 294 294 295 295 295 295 295 295 295 295 294 294 294 294 293 293 293 292 292
298 299 299 299 299 298 297 297 297 297 297 297 297 297 296 296 295 295 295 294 294 293 293 293 292 291 291 290 290 290 290 290 290 290 289 287 287 286 286 286 286 285 285 285 285 285 285 285 286 286 286 286 286 286 286 287 287 288 289 290 290 291 292 292 293 293 294 294 294 294 294 294 294 294 294 294 294 294 293 293 293 292 292 291 290
298 299 299 299 299 298 298 298 298 297 297 297 296 296 296 295 295 295 294 293 293 293 293 292 292 291 291 290 290 290 290 290 290 290 289 288 287 286 286 285 285 285 285 285 285 285 285 285 286 286 286 286 286 286 286 286 287 288 288 289 290 290 291 291 292 293 293 293 293 293 293 293 294 293 293 293 293 292 292 292 291 291 291 290 290
298 298 298 299 298 298 297 297 296 296 296 296 296 296 295 295 295 294 294 294 293 293 293 292 291 291 291 291 290 290 290 290 290 290 290 288 287 287 286 286 285 285 285 285 285 285 285 285 286 286 286 286 286 286 286 286 287 287 288 288 289 290 290 290 291 291 292 292 292 292 292 292 292 292 292 292 292 291 291 291 290 290 290 290 290
298 298 298 297 296 296 296 296 296 296 296 295 295 295 295 295 294 294 294 293 292 292 292 291 291 291 291 291 291 291 290 290 290 290 290 289 288 287 287 286 286 285 285 285 286 286 286 286 286 286 286 286 286 286 287 287 287 287 288 288 289 289 289 290 290 290 291 291 291 291 291 291 291 291 291 291 291 290 290 290 290 290 290 290 289
297 296 296 295 295 295 295 295 295 295 295 295 294 294 294 294 293 293 292 292 292 291 291 291 291 291 291 291 291 290 290 289 289 290 290 289 288 288 287 287 287 286 286 286 286 286 286 286 286 286 286 286 286 287 287 287 287 288 288 288 288 289 289 289 289 290 290 290 290 290 290 290 290 290 290 290 290 290 290 290 290 290 290 289 289
295 295 295 294 294 294 294 294 294 294 294 293 293 292 292 292 292 291 291 291 290 290 290 290 290 291 290 290 290 289 289 289 289 289 290 290 289 288 288 288 288 287 286 286 286 286 286 286 286 286 286 286 286 287 287 287 288 288 288 288 288 289 289 289 290 290 290 290 290 290 290 290 290 290 290 290 290 290 290 290 290 290 289 289 289
294 294 294 293 293 292 292 292 292 292 292 291 291 291 290 291 290 290 290 290 289 289 289 289 289 289 289 288 288 287 287 288 288 289 289 289 289 289 289 289 288 288 287 286 286 286 286 286 286 286 286 286 286 287 287 287 288 288 288 288 289 289 289 290 290 290 290 289 289 289 289 289 289 290 290 289 289 290 290 290 290 290 290 289 289
293 293 292 292 292 291 291 290 290 290 289 289 289 288 288 288 288 287 287 287 287 287 287 287 287 287 287 286 286 286 286 286 287 288 289 289 289 289 289 289 289 288 287 287 286 286 286 286 286 286 286 286 286 286 287 287 288 288 288 288 288 289 289 289 289 289 289 289 289 289 289 289 289 289 289 289 289 289 289 289 290 289 289 289 289
292 291 290 290 289 289 288 288 287 287 286 286 286 286 286 286 285 285 284 284 284 284 285 285 284 284 285 285 285 285 285 285 285 287 288 289 289 289 289 289 289 288 287 287 286 286 286 286 286 286 286 286 286 286 287 287 287 288 288 288 289 289 289 289 289 289 289 289 289 289 289 289 289 289 289 289 289 289 289 289 289 289 289 289 289
290 289 288 287 287 286 286 286 285 285 285 285 285 285 285 285 284 284 284 284 284 283 283 284 283 283 283 283 284 284 284 284 284 285 286 288 289 289 289 289 289 288 287 287 286 286 285 286 286 286 286 286 286 286 287 287 287 287 288 288 289 289 289 289 289 289 289 289 289 289 289 289 289 289 289 289 289 289 289 289 289 289 289 289 289
288 287 286 285 285 285 285 285 285 285 285 285 285 285 285 284 284 284 283 283 283 283 283 283 283 283 282 282 282 283 283 283 284 284 284 286 287 288 289 289 289 288 288 287 286 286 285 285 285 286 286 286 286 286 286 287 287 288 288 288 288 289 289 289 288 289 289 289 289 289 289 289 288 289 288 289 289 289 289 289 289 289 289 289 288
Wind_Speed
35 37 38 38 38 37 36 33 32 32 32 31 30 29 27 26 25 24 23 22 21 20 18 16 14 11 9 9 9 8 9 11 12 13 13 13 13 14 14 14 15 16 16 16 16 15 16 17 18 17 17 16 15 13 13 13 13 14 14 14 14 12 13 14 11 11 18 21 19 20 22 22 25 24 24 26 27 26 25 24 24 25 26 28 29
36 37 37 38 38 38 37 35 34 34 33 32 31 29 28 27 25 25 24 23 22 21 19 16 12 10 9 8 7 8 10 11 11 12 12 12 12 12 13 14 15 16 17 17 17 17 18 19 20 19 18 17 16 15 15 14 14 16 16 15 15 14 12 14 14 11 16 20 20 20 20 20 22 23 24 27 29 27 27 26 26 26 27 28 29
36 37 36 37 39 38 38 37 36 36 35 34 33 31 29 27 26 25 25 24 23 20 17 14 11 9 8 8 7 9 10 10 10 10 10 11 11 11 12 13 15 16 17 18 18 19 19 20 20 20 19 18 18 18 17 16 16 16 17 15 15 14 12 13 14 13 14 18 18 18 18 18 19 21 24 28 30 28 27 27 26 26 27 28 29
34 35 36 37 38 38 38 38 38 37 37 36 34 32 30 27 26 26 25 24 22 19 15 13 11 9 9 8 8 9 9 8 9 10 10 11 11 12 13 14 15 16 17 17 18 19 19 19 20 20 20 19 21 21 19 18 18 17 16 16 15 15 14 12 13 14 15 17 18 18 18 18 19 19 21 25 29 29 28 28 27 27 28 27 28
31 33 35 36 37 37 37 38 38 38 38 36 34 33 30 28 26 26 25 23 20 17 15 13 11 10 9 9 9 8 7 8 9 10 11 12 13 14 15 16 17 18 19 19 18 18 19 20 21 21 21 21 21 21 20 19 19 18 17 17 16 17 17 15 15 16 16 17 21 22 20 20 22 21 19 20 24 28 28 28 28 28 28 28 28
30 32 34 35 36 36 37 37 38 38 37 36 34 32 30 27 26 26 25 22 18 16 15 13 11 10 9 9 8 7 7 8 9 10 11 12 13 14 15 17 18 19 20 21 20 19 19 19 20 20 20 21 21 21 21 21 20 19 18 18 17 16 17 17 17 17 16 18 21 23 22 20 21 23 20 19 21 25 27 28 28 28 28 28 29
28 29 32 34 36 38 39 39 39 39 38 36 34 32 29 27 26 25 23 19 17 16 14 12 11 10 9 8 6 7 7 7 8 9 10 11 13 14 16 17 18 19 20 21 21 21 21 21 20 20 20 20 21 21 21 21 20 20 19 18 17 16 17 18 19 17 16 17 20 22 22 19 18 22 24 20 20 21 23 24 26 27 28 28 30
26 26 27 28 30 33 36 38 38 37 36 35 33 31 29 27 25 24 20 18 16 15 13 12 11 9 7 6 5 6 6 6 7 8 10 11 13 14 16 17 19 20 20 21 21 21 22 23 23 23 23 22 22 22 22 21 21 22 21 20 20 21 20 20 20 19 18 18 19 21 22 20 17 19 23 22 17 17 19 21 23 26 28 28 29
25 25 25 24 23 24 25 27 30 32 34 35 34 32 29 26 24 22 19 17 15 14 13 12 10 8 6 5 4 4 5 6 7 8 10 12 14 15 17 18 20 21 22 22 22 22 22 23 24 24 24 24 23 23 23 23 24 25 25 24 24 24 24 22 21 20 19 18 18 20 20 19 17 16 19 19 16 16 19 20 21 26 27 25 26
22 23 24 24 24 23 22 22 25 27 29 30 30 29 27 24 23 21 18 16 15 14 13 12 9 7 5 4 4 5 5 6 7 9 11 14 16 18 19 20 21 21 23 23 24 24 23 24 24 24 24 24 24 24 25 25 26 27 27 28 27 26 26 24 23 21 20 18 18 19 18 18 18 16 17 20 20 20 21 20 19 22 20 17 20
19 22 24 26 27 27 25 24 23 23 22 22 23 23 23 22 21 20 18 16 15 15 13 11 9 7 5 5 5 5 5 6 9 12 14 16 17 19 20 22 22 22 23 23 24 24 24 24 24 24 25 25 25 26 26 27 27 27 28 28 28 28 27 26 25 23 21 20 20 20 19 19 20 19 19 20 21 21 21 20 19 19 15 12 12
18 21 24 26 28 29 28 26 23 23 24 24 25 24 23 23 22 20 18 17 16 14 13 11 9 7 6 6 6 5 6 9 12 14 15 17 18 19 20 22 23 24 25 25 26 26 26 26 26 26 26 26 27 27 27 28 28 28 29 29 29 29 29 29 29 27 24 22 22 22 22 22 23 23 20 20 21 22 22 20 19 18 17 15 13
21 23 23 25 28 29 29 28 27 28 29 29 29 27 26 25 23 21 18 17 15 14 13 11 9 7 7 6 4 5 8 11 13 15 16 18 20 21 22 22 24 26 27 28 28 27 27 28 28 28 27 26 26 27 27 28 29 29 30 30 30 30 30 31 31 31 30 28 26 26 26 24 24 26 23 19 20 21 21 20 19 19 19 19 19
24 25 25 26 28 29 30 30 30 31 31 30 29 28 27 25 23 20 18 17 15 14 13 11 9 7 6 4 4 7 10 12 14 15 16 19 22 23 24 25 26 27 28 28 28 28 28 28 29 29 28 27 27 26 27 28 28 29 30 30 30 30 30 30 30 30 32 33 32 32 32 29 28 28 25 21 20 21 21 20 19 19 21 22 24
26 27 27 27 28 29 30 31 31 32 32 31 29 28 28 27 24 21 18 17 16 15 13 10 8 6 5 4 5 8 10 13 14 15 17 20 23 25 26 28 29 29 29 29 29 29 29 29 30 30 29 29 28 27 27 27 28 29 30 30 30 30 31 30 29 29 30 32 33 35 35 33 32 30 28 25 23 23 21 20 20 21 22 24 24
26 27 28 29 29 31 31 31 32 34 34 33 33 32 30 27 24 21 18 17 16 14 12 9 7 5 4 4 6 8 10 12 13 15 18 22 25 26 28 29 30 29 29 29 29 30 29 29 30 31 31 30 29 27 27 27 28 30 30 31 31 31 33 32 30 31 31 32 33 34 34 34 33 32 30 28 25 24 24 25 26 25 22 20 21
25 26 28 29 30 32 32 31 32 35 36 35 34 32 29 25 22 20 19 18 15 13 10 7 5 4 5 5 5 8 10 12 14 17 21 24 26 27 29 29 29 29 29 29 29 29 29 29 29 30 31 30 29 28 27 27 29 30 30 30 30 31 33 32 31 31 32 32 34 35 35 36 35 35 35 34 32 30 29 30 29 24 19 15 14
25 25 27 29 31 32 31 31 33 36 37 36 34 30 26 24 22 19 18 16 13 10 7 5 4 5 5 5 6 9 11 12 15 20 24 26 27 28 29 29 29 29 29 29 29 28 28 28 27 28 30 30 29 28 27 27 29 30 29 30 31 32 32 31 31 31 31 31 32 32 33 35 36 37 37 37 36 33 31 32 29 24 21 17 14
26 25 26 29 31 31 30 32 36 38 37 35 32 28 24 21 19 16 13 11 9 7 5 4 5 6 5 5 7 10 12 14 18 23 26 28 28 28 28 28 29 29 29 29 28 28 27 28 27 28 29 30 30 30 30 30 32 32 30 30 32 33 32 31 33 33 32 31 32 32 33 33 34 36 37 36 35 33 34 36 34 28 24 22 20
27 25 26 27 27 27 27 29 31 31 30 28 25 23 21 18 16 14 11 8 6 5 5 5 6 6 6 7 9 10 12 16 21 26 28 29 28 28 28 28 29 29 29 28 28 29 29 31 31 31 31 32 32 33 33 33 34 34 33 33 34 33 31 31 32 32 33 33 33 33 34 33 33 33 34 34 33 32 33 34 34 31 27 24 24
27 23 23 24 24 24 25 25 23 22 23 23 22 20 19 17 15 13 10 7 5 4 6 7 7 7 8 9 11 12 14 19 24 28 30 30 29 28 28 28 28 29 29 29 30 31 32 32 33 32 31 32 32 33 34 34 35 36 37 37 37 35 33 33 33 34 35 35 34 33 32 32 31 32 32 33 33 32 30 30 31 32 30 27 25
20 18 21 22 24 27 27 26 24 22 22 23 23 20 17 15 12 10 8 5 4 5 7 9 9 9 9 11 13 14 16 20 25 28 30 30 29 28 28 28 27 28 30 30 30 32 32 32 33 33 32 33 33 34 35 36 36 37 38 38 37 36 35 35 34 33 33 32 31 30 30 30 30 30 31 32 32 32 31 31 31 32 33 32 29
18 22 25 28 31 32 30 28 28 27 24 23 21 18 15 12 9 7 6 5 5 7 9 10 9 9 10 13 15 17 17 20 25 28 30 32 31 30 28 27 27 28 30 32 33 35 35 35 36 35 35 35 36 36 37 37 37 38 39 39 38 38 37 37 35 33 32 31 30 30 30 29 29 29 30 31 30 30 30 30 30 31 32 33 33
27 30 32 34 34 32 30 30 28 26 24 23 21 18 15 11 9 8 6 6 7 8 9 9 8 9 12 15 17 18 19 22 25 29 31 32 32 31 29 28 28 28 31 33 35 36 36 36 36 37 37 38 39 39 39 40 40 40 41 41 40 39 38 37 35 33 32 32 31 30 30 29 29 30 30 30 30 30 30 30 30 30 31 32 33
33 34 34 34 33 31 30 29 27 25 25 24 21 17 14 11 9 8 6 6 7 8 8 8 9 11 14 17 19 20 21 23 27 30 32 32 32 31 29 29 29 29 31 33 34 35 37 38 39 40 40 40 40 40 40 40 41 42 43 42 41 40 38 36 34 33 32 31 29 29 29 31 31 31 29 29 28 28 29 29 29 30 30 30 31
35 35 36 35 33 31 30 29 27 25 23 21 18 15 13 10 8 7 6 6 7 8 7 8 10 13 15 18 20 21 23 25 28 31 31 31 31 31 30 30 30 30 31 33 34 35 36 37 37 38 38 38 39 39 39 39 39 40 40 40 39 39 37 36 35 34 33 31 29 30 32 32 32 31 29 28 28 28 28 28 28 28 28 27 28
35 35 35 33 29 28 28 28 26 22 20 19 16 13 11 8 6 5 4 5 6 6 7 9 12 14 17 18 20 22 23 26 29 31 30 31 32 32 31 30 30 30 31 31 32 33 34 35 36 37 38 39 39 39 40 39 39 39 39 38 38 38 37 37 37 36 35 33 32 34 36 34 31 30 29 29 29 29 29 28 28 27 26 25 24
31 29 28 28 26 26 25 23 22 20 18 17 14 12 10 7 5 3 1 2 3 4 6 10 13 15 17 19 20 22 24 26 30 31 31 32 34 33 31 31 31 31 31 32 33 34 34 34 35 35 36 36 35 35 35 35 35 36 36 37 36 37 37 37 37 37 37 36 35 35 34 31 30 29 29 28 28 29 29 28 27 26 25 23 22
28 26 26 26 26 26 23 20 19 19 18 16 13 11 9 7 5 3 2 1 1 3 7 10 12 14 16 19 20 21 23 27 30 31 32 34 34 32 31 31 32 32 32 33 33 32 31 30 30 30 29 29 28 28 28 28 30 31 33 34 34 34 35 34 34 36 36 35 34 32 30 29 28 28 27 27 27 28 28 28 27 26 24 24 23
28 26 26 26 27 26 23 22 21 19 17 15 12 10 9 7 6 5 3 2 1 3 6 8 10 13 16 18 20 21 25 29 31 32 34 34 32 30 30 31 32 32 31 30 29 28 27 26 25 24 24 24 23 23 24 24 25 26 28 30 31 32 33 33 34 35 34 33 32 31 28 27 26 26 26 25 25 26 27 28 27 25 25 24 22
25 24 25 27 28 25 23 22 21 19 16 14 12 11 9 7 7 7 5 3 1 3 5 6 8 11 14 17 20 21 24 28 30 31 33 32 30 29 30 31 31 30 28 27 26 25 23 23 22 22 22 22 21 22 23 23 23 24 25 26 27 29 30 31 32 32 31 30 30 29 28 27 25 25 25 24 24 25 26 26 26 26 26 26 23
23 24 26 27 26 24 23 22 21 19 16 14 12 11 10 8 7 5 3 1 3 5 6 6 8 10 13 16 19 21 22 25 28 30 31 29 28 28 29 30 29 27 25 24 23 22 21 20 20 21 21 21 21 22 23 23 23 23 23 23 23 25 27 29 30 29 29 28 28 27 27 26 25 25 25 25 24 24 24 24 25 26 26 25 24
24 27 28 27 26 26 25 22 20 19 17 15 13 11 9 8 6 3 0 2 4 6 6 7 8 10 12 14 16 19 21 25 28 30 28 27 27 28 29 28 27 25 22 21 20 20 20 21 21 21 22 22 22 23 24 23 23 24 23 23 23 24 25 27 27 27 28 28 27 26 26 26 26 25 25 25 24 23 22 22 23 24 23 21 21
26 27 27 27 27 26 23 20 19 18 16 15 12 10 8 6 4 2 2 4 6 7 7 7 9 11 13 14 16 19 22 26 29 28 27 27 26 27 27 27 26 25 23 20 19 20 21 21 21 22 23 23 23 24 24 24 24 24 23 23 23 23 24 25 24 25 26 26 26 26 25 25 25 25 24 23 23 22 21 21 21 22 21 20 20
25 25 26 26 25 23 20 18 17 16 15 14 11 9 7 5 3 1 3 5 7 9 10 10 10 12 14 16 18 20 23 27 29 27 26 26 26 26 25 24 24 25 25 23 22 21 21 22 22 23 24 24 24 24 24 24 24 24 23 23 22 22 22 22 23 24 25 25 24 25 25 25 25 25 24 23 22 20 19 19 21 21 21 22 22
24 24 24 23 22 20 17 17 16 16 14 12 9 7 6 3 1 1 4 5 7 9 10 11 11 14 15 16 17 20 23 27 29 27 26 25 25 24 23 22 22 23 23 23 24 23 23 23 23 24 25 25 24 24 24 24 24 24 23 22 22 21 20 20 22 23 24 24 23 24 24 25 25 25 23 21 20 20 19 20 20 20 21 22 22
25 25 23 21 19 17 16 15 15 15 13 10 7 6 4 1 1 3 5 7 7 8 10 10 11 14 16 17 17 20 23 27 29 28 27 26 25 23 22 22 22 22 22 23 24 24 24 24 24 25 25 25 25 25 25 24 24 24 23 21 19 19 19 19 20 21 23 24 23 23 22 22 22 22 21 19 18 19 20 21 21 21 23 26 25
26 24 21 18 17 15 14 14 15 14 12 9 6 4 2 1 3 5 7 7 6 7 9 10 10 13 16 18 18 20 23 27 29 30 29 27 26 24 23 22 23 22 23 23 24 24 24 25 25 26 26 26 26 25 25 24 24 23 21 19 17 15 14 14 15 18 22 24 23 23 22 20 19 20 20 20 20 21 22 23 24 25 26 28 27
23 21 18 15 13 12 13 15 15 14 11 7 4 2 2 5 6 7 6 5 4 5 7 9 9 11 15 17 17 19 23 26 27 27 27 26 26 25 24 23 23 24 24 24 25 25 25 25 26 26 26 26 26 26 25 24 23 22 20 17 15 12 9 7 7 10 17 21 21 21 21 20 19 20 21 22 23 24 24 25 27 29 27 25 25
20 18 16 13 12 11 12 13 13 10 6 3 2 4 5 6 5 3 3 3 4 5 7 7 8 11 15 16 16 18 21 24 25 25 25 25 25 25 24 24 24 25 25 25 26 26 26 26 26 27 26 27 27 26 26 24 22 21 19 16 13 10 6 2 1 6 11 15 18 19 20 20 21 22 22 22 23 25 26 26 27 29 29 28 29
18 17 15 13 12 11 11 11 9 6 4 2 0 1 2 2 3 4 4 4 5 7 8 6 7 10 14 15 15 16 19 22 25 26 25 24 24 24 24 25 25 26 27 27 27 27 27 27 27 27 27 27 27 26 25 24 22 21 19 16 13 10 7 5 7 11 14 17 19 20 21 22 24 23 23 24 25 26 27 27 27 28 30 31 33
16 16 15 14 12 12 12 11 9 8 7 6 6 6 6 6 7 6 6 6 6 8 9 7 7 8 11 13 14 15 17 19 23 26 25 24 24 24 25 26 26 26 27 27 27 27 27 27 27 27 27 27 27 26 25 24 22 21 19 17 14 12 10 9 10 14 17 19 21 23 23 24 26 26 26 27 28 28 29 29 28 29 30 31 33
14 14 15 14 14 14 14 13 12 12 11 10 10 10 8 8 8 8 8 9 9 10 11 10 9 9 10 12 13 15 15 17 20 24 25 25 25 25 26 26 26 26 26 26 26 27 27 27 27 28 27 27 26 25 24 23 22 20 19 17 15 14 12 11 12 15 19 21 22 24 25 25 27 28 29 29 30 30 30 30 30 29 30 30 31
15 16 17 17 17 17 16 15 14 14 13 12 11 10 10 9 10 10 10 11 11 11 12 12 11 11 12 13 14 16 16 15 17 21 24 25 25 25 25 25 26 26 26 26 26 26 26 27 27 27 27 27 26 25 24 22 21 20 19 17 16 15 14 13 13 15 19 23 24 26 27 27 28 30 30 30 31 31 31 30 31 30 30 30 30
19 19 20 20 20 18 17 16 15 14 13 12 12 11 11 11 11 12 11 12 12 12 12 12 12 12 13 14 15 17 17 15 15 18 22 24 25 24 24 25 25 25 25 25 25 25 26 26 27 27 27 27 26 25 24 22 21 19 19 18 17 16 14 14 15 17 20 23 25 27 28 28 29 30 30 30 31 32 31 31 31 31 30 30 30
22 21 21 20 20 19 17 16 14 13 12 12 12 12 11 11 11 12 11 12 12 12 12 13 13 13 14 15 16 18 18 16 15 16 19 21 23 23 24 26 26 26 25 24 24 25 25 25 26 27 27 27 26 25 24 23 21 20 18 18 17 16 15 15 17 20 22 23 25 27 28 29 29 30 31 30 31 32 32 32 31 30 30 30 31
21 21 20 20 19 18 17 15 14 13 13 12 12 12 11 11 10 10 10 11 11 12 12 13 13 14 15 15 16 17 18 18 16 15 16 18 20 21 24 27 28 27 25 24 24 24 25 25 25 26 26 26 25 25 24 23 22 20 19 18 17 17 16 17 19 22 23 24 26 28 30 30 30 30 31 31 31 32 33 32 31 31 31 31 32
20 20 20 19 18 17 16 15 15 14 13 12 12 11 11 10 10 11 11 11 11 11 12 12 13 14 15 15 15 17 18 18 17 16 14 15 16 18 22 25 26 26 25 25 24 24 25 25 25 25 25 25 25 25 24 23 22 21 21 20 19 18 19 20 21 23 25 27 28 29 30 31 31 30 31 32 32 32 33 33 32 32 32 32 32
20 20 19 19 18 18 17 16 16 15 14 13 12 11 11 11 11 11 11 11 11 11 12 12 12 13 14 15 16 17 18 18 19 18 15 14 14 15 18 21 22 23 24 25 24 24 25 25 24 25 25 25 25 25 24 24 23 22 21 20 20 20 21 23 24 25 26 28 29 30 30 31 31 31 32 33 33 32 33 33 33 33 33 32 32
20 20 19 19 19 18 17 17 17 16 15 14 12 11 11 11 11 11 11 11 11 11 11 11 12 13 13 14 15 16 18 18 19 18 17 15 14 13 15 17 19 21 23 25 24 24 25 25 25 25 26 25 25 26 25 24 24 23 21 20 20 21 23 24 26 27 28 29 30 31 32 32 32 32 32 33 33 33 33 33 33 33 32 31 31
19 19 18 18 17 17 17 17 16 16 15 14 12 11 11 10 10 11 11 11 11 11 11 11 11 12 12 13 14 15 16 17 18 18 19 17 15 13 13 14 15 17 20 23 24 25 26 27 27 27 27 27 27 27 26 24 23 22 21 21 21 22 24 26 27 28 29 30 31 32 32 33 33 32 32 32 33 33 33 32 31 31 31 30 30
Wind_Direction
215 216 217 217 218 218 218 220 223 226 226 226 226 225 224 224 224 222 221 221 222 222 226 233 239 248 264 278 286 292 296 299 302 306 310 312 314 315 314 313 313 315 319 320 322 322 323 323 322 321 321 319 319 321 320 318 318 315 314 314 310 310 311 304 298 295 294 297 301 301 301 298 290 282 275 274 276 275 271 269 270 273 273 271 269
217 218 218 217 219 219 219 221 223 225 226 225 224 223 223 222 221 219 217 218 218 218 222 225 228 238 255 266 274 283 288 291 294 299 302 306 311 314 316 316 315 317 317 317 318 318 318 318 318 319 318 315 314 316 315 312 314 314 313 314 310 307 308 303 299 296 295 297 300 304 309 304 290 282 277 276 279 279 275 271 269 267 269 271 271
221 219 218 219 220 220 220 221 223 224 224 223 222 221 221 220 218 216 214 213 213 214 216 215 216 228 240 247 258 270 277 280 284 289 294 300 307 309 313 314 315 317 317 316 315 313 312 313 314 315 314 311 310 310 310 308 308 309 308 310 309 304 306 305 301 302 302 301 303 307 311 312 302 294 287 281 279 279 277 275 272 268 266 267 269
223 220 219 221 222 221 220 220 222 223 223 222 221 220 219 218 216 214 211 209 209 209 208 208 212 221 227 234 246 256 262 268 277 286 292 299 304 306 308 309 309 311 312 313 314 310 307 307 310 311 308 305 305 305 305 304 305 305 303 303 304 302 304 304 301 308 311 304 303 304 306 310 308 306 303 291 280 275 275 275 273 269 265 264 266
225 222 220 220 221 221 220 220 221 222 223 222 221 219 217 215 214 211 208 206 206 205 203 204 210 217 223 232 239 244 255 268 278 288 295 300 303 304 305 305 305 305 305 306 307 306 303 303 304 304 302 300 300 300 300 301 301 300 296 296 295 295 298 298 299 304 305 299 297 297 298 301 301 302 310 308 293 281 276 274 271 267 264 261 261
230 226 222 220 220 221 221 221 221 223 223 222 221 218 215 213 211 207 205 205 204 203 202 204 210 216 222 228 237 249 264 277 286 292 297 299 301 301 301 302 302 303 303 303 302 300 300 300 299 298 297 296 295 295 296 297 296 295 294 293 292 292 292 296 300 300 296 294 294 294 293 295 296 294 298 312 311 292 277 271 268 264 262 260 259
238 232 227 223 222 222 222 222 223 223 222 221 219 216 213 211 207 203 202 204 203 202 203 206 210 214 219 227 246 266 276 284 290 293 297 299 301 302 303 303 303 302 302 301 299 297 296 296 295 293 292 291 291 292 292 292 291 290 290 290 290 290 290 291 294 294 294 294 293 292 292 291 291 289 289 302 315 300 276 264 263 264 262 260 259
242 240 236 233 230 228 227 225 223 220 219 217 215 213 209 206 203 201 200 201 203 205 207 208 208 209 218 237 259 269 276 282 287 294 302 306 308 308 307 306 304 302 300 298 297 296 295 295 294 292 291 288 286 286 286 287 288 286 285 285 287 288 288 287 286 284 286 288 288 290 293 291 288 287 287 294 307 301 282 268 262 264 264 262 261
242 241 241 242 243 245 243 235 226 219 216 212 207 205 203 200 198 199 199 200 203 207 209 209 207 210 223 243 252 255 262 275 292 306 313 316 316 313 310 306 303 300 298 296 296 294 294 294 293 293 292 289 285 284 282 282 283 283 282 283 284 285 285 284 281 279 278 279 280 284 289 289 288 288 286 287 290 293 295 289 274 267 265 262 260
245 241 240 241 243 246 248 243 233 223 212 203 197 196 195 196 197 197 197 200 203 205 207 208 211 219 228 234 235 242 257 280 305 317 322 321 318 313 309 305 301 298 297 296 295 293 293 292 292 291 290 287 285 284 283 283 282 281 280 280 279 280 280 278 277 276 274 272 271 275 280 282 283 284 281 281 283 286 293 297 289 277 268 258 257
252 244 238 237 237 237 236 234 228 217 203 192 191 194 194 196 199 198 197 199 201 204 208 211 216 221 224 227 234 246 271 300 315 321 323 323 321 317 311 306 302 298 297 296 295 295 294 292 291 290 287 286 284 283 283 284 283 282 280 278 276 275 274 274 273 272 271 269 267 268 268 272 277 279 279 281 283 283 286 290 290 284 271 253 254
261 251 241 235 234 232 229 223 212 205 199 194 195 199 199 198 198 198 197 197 200 205 210 214 216 219 225 231 240 262 295 313 320 323 326 329 331 327 318 310 305 301 298 297 296 296 294 292 290 287 285 284 283 282 281 281 281 281 280 278 276 273 271 270 270 269 267 266 267 265 262 266 272 272 273 278 281 282 285 285 284 281 270 256 249
267 255 244 235 232 229 224 217 205 201 201 196 193 194 195 195 196 196 194 195 200 206 210 214 216 221 227 231 250 294 316 320 321 325 327 331 333 329 321 315 308 303 300 297 295 294 292 290 288 285 283 281 279 279 278 279 280 280 279 278 276 274 271 268 267 267 265 264 264 263 262 262 265 267 268 271 275 279 280 279 279 277 268 260 257
275 260 246 237 232 225 219 212 204 199 197 191 186 186 188 192 195 194 191 193 199 205 208 212 216 220 227 241 288 319 325 322 322 325 325 325 327 324 319 313 307 303 300 297 294 292 289 288 285 283 282 280 278 277 277 278 279 278 277 277 275 274 273 270 267 266 265 262 260 261 263 261 261 265 265 264 269 276 278 278 278 276 269 267 267
278 266 252 239 230 222 214 207 198 193 188 183 181 184 189 192 191 188 189 194 200 205 207 209 212 217 234 272 308 324 329 326 323 322 319 321 323 321 316 311 305 301 298 295 293 291 289 287 285 283 282 280 278 277 276 276 276 276 275 275 274 274 272 269 267 265 263 261 260 260 262 262 261 263 263 262 264 265 267 273 278 283 281 273 266
275 265 253 241 231 223 214 203 194 187 182 179 180 184 188 189 186 184 186 191 195 198 199 203 210 226 254 285 310 323 327 325 320 317 319 323 324 321 315 309 303 298 295 293 291 290 289 286 284 283 281 279 278 277 276 275 275 274 274 274 275 275 272 270 268 265 263 262 261 261 262 263 262 262 262 260 257 256 265 275 279 284 285 271 256
270 262 251 241 232 223 214 201 189 182 178 177 179 182 184 184 182 182 184 185 187 189 192 199 220 253 269 286 309 319 320 319 318 320 325 328 325 320 314 308 302 297 294 292 291 289 288 286 284 282 280 279 279 278 277 276 273 271 272 274 275 274 273 273 272 268 265 265 264 263 263 263 263 263 262 261 260 262 269 274 273 273 270 259 248
271 261 248 238 230 221 210 194 184 179 177 177 178 177 178 177 176 178 182 182 181 183 189 205 241 262 269 283 305 312 312 316 324 328 330 330 326 320 314 308 302 298 295 293 291 290 288 287 284 281 279 278 278 278 277 275 272 270 271 274 275 272 272 275 275 272 270 268 267 265 264 263 262 261 261 261 261 261 259 259 261 260 254 247 243
273 263 248 236 225 214 200 188 183 180 175 172 169 165 164 165 165 168 173 173 171 179 196 228 250 255 261 281 297 305 311 320 330 333 333 332 328 321 315 308 302 299 297 296 294 291 289 288 285 282 280 279 278 277 276 274 271 271 271 273 273 271 271 273 273 273 272 270 267 266 265 264 262 259 258 257 257 257 255 254 253 249 244 240 237
275 265 247 229 214 202 190 183 177 169 160 155 152 150 150 153 155 157 160 160 166 188 222 244 251 250 258 278 291 301 313 325 334 337 336 333 327 321 315 307 302 300 298 297 295 293 291 289 287 285 282 281 279 277 276 272 270 271 270 269 268 269 272 273 271 272 273 271 269 267 265 264 262 257 254 252 252 254 254 249 244 241 241 240 233
274 257 231 211 196 185 174 163 152 144 142 142 140 140 141 143 147 151 154 162 180 218 245 250 251 252 263 279 293 303 315 328 337 339 336 332 327 321 313 306 302 299 298 295 293 292 291 290 289 288 285 282 279 277 275 273 271 271 269 266 266 268 271 272 271 271 270 268 267 266 263 261 258 253 249 247 247 248 249 246 243 243 245 244 238
255 222 197 181 169 162 153 145 142 144 142 135 131 131 134 136 141 148 157 173 203 239 249 248 248 256 271 289 299 303 313 327 336 338 336 333 328 322 313 306 303 299 295 293 291 290 289 288 288 287 285 283 280 278 277 275 273 271 269 267 267 268 268 269 270 269 266 264 264 262 259 256 253 249 246 244 241 241 244 247 250 250 250 249 247
202 178 161 150 145 143 141 142 145 144 136 126 123 127 134 140 148 159 173 194 214 232 241 245 251 267 287 299 301 301 309 323 331 334 334 333 329 323 314 307 303 298 291 288 288 288 287 287 287 287 286 284 282 280 278 276 273 270 269 268 268 267 266 266 265 264 262 261 260 259 257 253 249 247 244 241 239 239 243 249 252 252 253 253 253
163 152 143 137 136 138 140 142 140 134 128 126 127 132 139 150 162 171 185 205 220 235 246 252 266 283 293 297 298 300 308 319 326 329 331 331 328 322 315 308 303 297 292 288 288 288 288 289 289 289 289 287 285 282 280 277 274 272 270 269 267 265 264 261 259 257 256 254 253 252 251 249 247 244 243 242 241 243 246 250 254 254 254 254 255
146 140 134 133 136 140 143 141 137 133 132 131 132 138 147 156 164 170 188 212 229 244 254 264 280 287 287 289 295 302 309 317 323 325 327 328 325 320 314 308 302 298 293 291 290 290 291 291 292 291 290 288 286 283 280 277 274 272 270 268 266 263 259 256 253 252 250 248 247 246 247 247 246 244 244 244 243 243 245 249 253 255 256 256 256
135 131 131 135 140 143 144 143 142 142 141 137 135 138 141 145 152 165 189 216 233 249 263 277 283 282 282 288 296 303 309 314 319 322 324 325 324 320 315 309 305 301 298 295 295 295 294 294 293 292 290 288 285 282 278 275 274 272 270 267 263 258 254 250 247 245 244 244 243 243 245 246 246 245 243 241 240 240 241 244 249 253 255 255 255
126 128 135 141 144 146 146 147 147 146 145 142 138 129 124 130 146 167 196 227 246 261 274 280 280 280 285 292 298 302 306 312 316 319 321 323 323 321 317 313 310 307 304 301 300 299 297 296 294 292 289 287 285 281 278 275 272 270 267 264 259 254 250 247 244 242 242 242 242 243 245 245 243 240 236 234 235 238 240 242 245 248 250 249 247
121 128 136 140 141 143 145 147 148 145 141 138 131 122 120 124 131 142 175 266 279 283 283 283 286 289 291 293 296 298 303 311 317 319 321 323 324 322 319 316 313 311 308 306 305 303 300 298 295 293 290 287 284 281 278 274 271 268 265 262 258 254 251 248 245 243 242 241 241 243 243 241 237 233 230 230 231 235 238 239 240 243 244 239 231
130 137 141 140 140 142 146 150 151 145 137 129 121 116 116 110 100 93 71 24 341 309 300 298 301 300 295 295 296 295 300 310 317 319 320 323 324 323 321 318 316 313 312 312 310 306 303 299 295 292 289 285 282 280 278 275 271 268 265 262 258 254 250 246 241 240 239 238 238 239 238 235 232 229 228 228 230 233 236 236 236 238 236 227 218
146 150 149 147 146 149 153 154 150 142 133 128 125 122 118 106 91 88 84 74 37 322 309 313 317 312 305 306 307 303 304 312 317 319 321 324 326 325 323 322 320 319 319 319 316 309 303 298 294 291 288 286 284 283 281 279 274 271 268 264 257 251 246 242 238 238 237 235 234 235 233 230 228 226 225 226 229 233 235 235 234 233 226 217 208
153 153 150 150 153 157 156 150 143 138 134 131 131 130 126 115 100 94 97 98 358 302 299 312 324 321 314 314 316 315 314 317 321 323 326 329 329 328 327 325 325 325 325 323 316 308 302 299 296 294 293 291 290 289 288 285 280 277 276 270 260 250 244 240 238 236 234 233 232 232 230 227 224 223 223 223 226 231 233 233 232 228 221 212 201
151 149 150 154 157 157 153 146 140 138 137 134 133 131 128 128 125 118 122 247 294 299 302 308 318 324 321 318 317 318 321 326 329 330 332 333 333 332 330 329 328 330 331 326 317 309 306 304 301 301 300 297 296 296 295 292 288 287 285 278 266 253 244 241 239 235 231 229 229 227 225 224 222 222 224 224 226 229 229 229 228 223 215 207 196
152 151 154 157 157 154 151 147 142 140 140 141 140 135 130 135 141 138 98 328 324 321 316 310 314 324 329 327 325 326 330 335 337 338 338 339 338 336 333 332 333 334 333 326 318 313 313 311 307 307 307 304 303 303 301 298 297 296 294 286 273 261 252 248 242 234 229 228 226 223 222 221 220 222 225 226 226 227 226 226 224 216 204 193 182
154 155 157 158 156 153 151 150 147 145 145 146 146 141 136 137 131 96 16 351 345 342 339 334 330 331 333 336 339 340 340 341 343 344 345 345 343 340 337 335 338 340 338 330 322 318 318 317 315 314 313 311 310 308 306 305 305 305 302 296 285 271 260 251 241 232 228 226 224 222 220 219 219 220 223 224 224 224 224 220 212 201 188 175 165
152 153 155 156 153 151 151 153 154 153 152 153 154 153 154 151 132 50 346 330 329 336 345 353 355 349 343 342 345 347 346 347 348 350 351 350 348 345 342 340 339 340 338 335 331 326 324 322 319 319 319 317 316 314 312 311 312 310 307 305 300 286 268 251 238 232 227 223 222 221 220 220 220 219 219 219 217 216 215 208 198 188 176 164 156
150 150 152 153 152 151 154 160 161 160 158 158 160 164 166 162 117 345 327 324 329 340 350 358 2 358 352 348 349 350 351 353 354 355 355 355 353 350 346 342 338 335 333 333 333 330 328 327 325 325 325 323 322 321 319 318 318 316 314 312 307 296 280 260 242 232 225 220 220 219 217 218 219 216 212 211 208 205 199 191 182 174 163 154 148
150 151 153 155 155 155 159 163 162 160 159 159 161 167 171 172 324 316 318 329 348 2 3 1 360 358 356 355 354 353 354 356 359 360 360 359 357 354 348 343 340 336 333 333 334 332 331 332 332 332 331 330 329 327 326 325 325 325 323 319 311 300 289 273 252 236 224 217 216 215 212 210 209 204 198 193 189 186 181 172 163 154 148 143 139
152 153 155 156 155 151 151 153 156 160 167 172 175 177 177 324 325 318 323 337 4 23 18 10 4 360 358 359 357 354 354 358 1 2 1 359 357 354 349 345 343 339 336 336 338 337 336 337 338 338 337 336 335 334 333 333 333 333 331 327 319 307 295 284 264 241 225 216 213 212 210 206 202 197 191 183 175 169 165 158 148 141 140 141 141
152 152 149 145 140 138 143 151 159 169 177 183 192 224 300 321 318 317 326 344 14 29 22 18 17 10 5 3 360 355 354 358 0 360 358 357 356 353 350 346 344 343 340 340 342 342 340 341 342 342 342 341 341 341 341 340 340 342 341 338 333 325 312 298 273 235 219 211 205 202 201 198 195 191 185 176 167 161 155 149 144 141 140 139 139
148 143 135 128 126 136 151 161 167 175 181 192 251 291 307 317 322 338 17 39 38 21 12 16 24 22 15 9 3 357 355 358 0 359 357 356 353 351 349 347 346 345 344 343 345 346 345 346 347 347 346 347 348 348 348 348 349 351 352 352 352 354 352 347 143 164 178 182 181 179 180 177 174 173 169 162 157 153 147 143 142 141 139 136 133
140 133 126 122 126 138 150 155 158 158 153 152 188 342 4 34 64 74 78 75 51 24 18 27 36 27 19 13 6 359 356 360 3 2 0 357 353 350 350 350 349 349 348 347 349 350 349 350 351 351 351 353 354 354 355 357 359 0 2 5 10 20 37 75 113 128 138 146 151 153 155 156 156 155 150 145 144 144 140 138 137 137 135 134 132
132 124 119 118 125 132 133 132 132 128 121 113 103 94 89 84 79 77 78 74 51 31 32 46 47 27 15 9 4 357 356 2 7 6 3 360 357 355 354 353 352 353 352 352 353 354 354 355 356 357 357 358 359 360 1 3 6 8 11 15 23 33 49 74 104 121 128 131 134 137 140 144 145 143 140 137 136 135 133 132 133 133 133 132 132
122 116 114 117 123 125 122 121 121 117 110 104 100 96 90 83 77 73 70 64 51 42 42 45 40 26 15 8 3 359 359 5 9 8 6 3 1 360 359 357 355 356 357 358 359 0 360 1 2 3 4 5 6 8 10 11 13 16 18 25 33 42 54 73 94 112 120 123 126 130 133 135 135 133 132 132 131 129 129 129 130 130 130 130 130
118 115 116 117 118 117 116 116 115 111 105 101 98 92 85 80 74 70 67 62 55 50 48 44 37 29 22 15 11 9 8 9 10 9 8 7 5 3 3 1 359 359 360 3 6 7 7 7 8 8 10 12 14 17 20 22 24 26 28 34 42 50 59 72 88 105 117 122 123 125 127 128 128 127 128 128 128 126 126 127 128 129 129 128 127
115 114 113 113 111 110 109 109 108 106 103 99 93 85 80 75 70 65 62 59 53 49 48 45 40 34 28 23 20 18 15 13 12 11 11 11 9 8 8 6 4 3 3 6 9 12 13 13 13 13 14 16 19 23 27 30 34 37 40 46 53 58 65 78 94 108 117 120 121 123 124 124 124 124 125 126 126 125 125 126 127 127 127 127 126
110 110 110 108 106 105 103 102 103 103 98 91 84 78 73 70 65 61 59 55 51 48 45 42 40 37 31 27 25 23 20 17 14 13 14 14 12 10 9 8 7 7 7 9 12 15 17 18 18 18 19 20 23 27 31 35 39 44 50 57 65 71 79 93 105 111 115 117 118 120 120 120 120 122 123 123 123 123 122 123 124 124 124 124 123
104 104 104 103 102 100 98 97 97 95 89 82 76 71 66 62 59 55 52 49 46 42 39 37 36 35 32 27 22 21 21 21 18 16 16 16 15 13 11 11 12 12 12 12 15 18 20 22 24 25 25 26 29 32 35 39 43 48 55 63 72 81 90 101 108 111 113 116 118 118 118 117 118 119 120 120 120 119 119 119 120 120 120 120 120
99 98 99 99 98 96 93 91 88 83 78 73 68 62 57 50 43 37 33 32 30 29 28 27 26 28 29 26 21 19 19 19 20 20 19 17 15 14 13 15 16 18 18 18 18 21 24 26 28 30 32 33 35 37 40 44 47 52 58 66 75 85 94 100 105 108 111 113 114 115 115 116 116 116 117 117 117 117 117 116 117 117 117 117 118
95 94 94 92 91 88 85 82 77 72 66 62 56 49 43 37 31 24 20 18 17 16 16 16 16 18 21 21 20 18 16 15 17 19 18 16 14 12 13 17 21 24 26 26 25 26 29 31 32 34 36 38 40 43 46 48 52 56 62 69 78 88 95 99 102 105 108 109 109 110 111 111 111 112 114 115 115 115 115 115 115 116 116 116 117
92 90 88 86 84 81 78 75 72 66 60 56 51 45 39 33 26 20 17 15 13 11 10 9 9 11 14 16 17 16 13 12 13 14 15 16 15 10 11 17 23 28 32 34 34 34 36 37 38 39 41 42 44 47 50 53 56 60 66 73 81 89 96 100 102 105 106 106 106 107 109 109 109 109 111 112 113 113 113 114 115 116 117 118 119
89 87 85 82 79 77 74 72 68 62 57 53 50 46 42 36 30 25 20 17 14 11 8 5 5 6 8 11 13 14 13 12 11 12 14 17 17 13 12 17 23 29 34 39 42 43 43 43 43 44 44 44 45 47 51 55 59 64 70 76 81 88 95 99 101 104 106 107 107 107 107 108 107 107 108 109 111 111 112 114 116 117 118 120 121